Precipitable_Water
0.41 0.41 0.41 0.40 0.38 0.38 0.38 0.37 0.36 0.35 0.36 0.36 0.36 0.36 0.37 0.38 0.40 0.39 0.40 0.41 0.42 0.42 0.44 0.44 0.46 0.47 0.47 0.48 0.50 0.48 0.46 0.40 0.38 0.35 0.33 0.33 0.45 0.47 0.45 0.47 0.49 0.48 0.69 0.82 0.99 0.93 0.94 1.07 1.12 1.39 1.33 1.34 1.30 1.27 1.42 1.51 1.71 1.67 1.32 1.20 1.09 1.20 1.10 1.21 1.22 1.24 1.26 1.25 1.36 1.38 1.43 1.39 1.27 1.42 1.49 1.58 1.47 1.45 1.41 1.42 1.46 1.55 1.51 1.57 1.62 1.62 1.63 1.60
0.42 0.41 0.41 0.40 0.39 0.37 0.36 0.36 0.35 0.35 0.35 0.35 0.36 0.35 0.36 0.38 0.38 0.39 0.39 0.40 0.40 0.41 0.42 0.43 0.44 0.45 0.47 0.48 0.49 0.48 0.42 0.39 0.31 0.32 0.30 0.48 0.62 0.60 0.53 0.49 0.51 0.50 0.66 0.85 0.74 0.74 0.75 0.85 1.01 1.18 1.18 1.08 1.39 1.15 1.38 1.25 1.61 1.37 1.28 1.18 1.09 1.18 1.24 1.35 1.32 1.32 1.27 1.28 1.40 1.41 1.45 1.41 1.35 1.40 1.45 1.33 1.30 1.34 1.30 1.35 1.39 1.36 1.45 1.53 1.54 1.56 1.55 1.54
0.42 0.42 0.41 0.40 0.39 0.38 0.36 0.35 0.34 0.34 0.34 0.35 0.36 0.36 0.36 0.36 0.37 0.38 0.37 0.37 0.38 0.39 0.40 0.41 0.42 0.44 0.46 0.49 0.48 0.47 0.39 0.32 0.34 0.37 0.55 0.74 0.73 0.70 0.60 0.52 0.55 0.58 0.59 0.72 0.70 0.69 0.64 0.66 0.83 0.90 1.04 0.98 1.18 1.07 1.18 1.20 1.36 1.40 1.26 1.10 1.17 1.31 1.32 1.36 1.37 1.32 1.38 1.34 1.34 1.39 1.42 1.42 1.45 1.41 1.47 1.33 1.27 1.30 1.21 1.20 1.27 1.27 1.24 1.34 1.42 1.49 1.51 1.50
0.43 0.43 0.42 0.41 0.40 0.38 0.37 0.35 0.34 0.33 0.34 0.35 0.37 0.37 0.36 0.35 0.35 0.35 0.36 0.36 0.37 0.37 0.39 0.39 0.40 0.45 0.46 0.44 0.47 0.49 0.38 0.26 0.34 0.46 0.68 0.75 0.79 0.76 0.65 0.57 0.58 0.60 0.66 0.82 0.74 0.73 0.82 0.94 0.95 0.89 0.91 0.87 1.01 1.12 1.00 1.22 1.11 1.30 1.24 1.15 1.29 1.33 1.27 1.31 1.39 1.39 1.38 1.39 1.38 1.36 1.43 1.37 1.41 1.42 1.37 1.35 1.22 1.20 1.27 1.33 1.26 1.22 1.22 1.29 1.36 1.43 1.46 1.43
0.43 0.43 0.43 0.42 0.41 0.40 0.38 0.36 0.34 0.34 0.33 0.35 0.37 0.37 0.36 0.35 0.34 0.34 0.33 0.35 0.35 0.36 0.37 0.38 0.42 0.45 0.45 0.44 0.42 0.45 0.33 0.20 0.32 0.48 0.70 0.80 0.81 0.80 0.66 0.61 0.61 0.61 0.74 0.85 0.75 0.77 0.83 0.86 0.89 0.90 0.93 0.79 1.01 0.96 0.97 1.14 1.24 1.33 1.18 1.32 1.38 1.34 1.28 1.36 1.43 1.47 1.41 1.40 1.39 1.37 1.30 1.29 1.48 1.42 1.33 1.33 1.18 1.15 1.26 1.34 1.40 1.37 1.30 1.27 1.31 1.39 1.42 1.39
0.43 0.43 0.44 0.43 0.42 0.40 0.38 0.36 0.34 0.34 0.34 0.35 0.36 0.36 0.36 0.35 0.34 0.33 0.33 0.33 0.34 0.34 0.35 0.38 0.45 0.42 0.43 0.44 0.43 0.36 0.23 0.08 0.36 0.51 0.71 0.78 0.83 0.78 0.65 0.65 0.66 0.70 0.82 0.78 0.65 0.72 0.72 0.75 0.75 0.72 0.78 0.80 0.92 0.80 0.91 1.07 1.25 0.99 1.21 1.29 1.40 1.44 1.37 1.45 1.42 1.44 1.42 1.36 1.35 1.31 1.39 1.44 1.33 1.31 1.38 1.37 1.31 1.36 1.48 1.47 1.46 1.42 1.39 1.35 1.35 1.39 1.34 1.34
0.41 0.42 0.42 0.43 0.42 0.40 0.37 0.35 0.34 0.33 0.34 0.35 0.35 0.35 0.35 0.34 0.33 0.33 0.32 0.33 0.33 0.33 0.35 0.42 0.44 0.42 0.43 0.43 0.42 0.28 0.20 0.14 0.32 0.57 0.66 0.78 0.78 0.76 0.67 0.68 0.74 0.79 0.82 0.68 0.65 0.60 0.62 0.62 0.62 0.66 0.68 0.71 0.90 0.83 0.89 0.90 1.13 1.04 1.08 1.29 1.32 1.43 1.36 1.48 1.45 1.44 1.39 1.34 1.30 1.41 1.46 1.33 1.32 1.18 1.38 1.36 1.41 1.43 1.48 1.48 1.49 1.46 1.44 1.40 1.28 1.33 1.32 1.32
0.41 0.41 0.41 0.41 0.42 0.41 0.38 0.35 0.33 0.33 0.33 0.33 0.33 0.32 0.33 0.33 0.32 0.31 0.32 0.32 0.32 0.33 0.39 0.43 0.42 0.42 0.44 0.37 0.31 0.21 0.17 0.16 0.34 0.42 0.53 0.76 0.84 0.72 0.75 0.74 0.77 0.84 0.76 0.57 0.54 0.49 0.55 0.52 0.47 0.63 0.56 0.60 0.81 0.79 0.91 0.90 0.98 0.90 0.94 1.19 1.32 1.37 1.39 1.44 1.44 1.40 1.35 1.34 1.37 1.38 1.31 1.29 1.35 1.35 1.34 1.33 1.39 1.46 1.45 1.49 1.44 1.44 1.42 1.37 1.31 1.28 1.30 1.32
0.39 0.40 0.41 0.42 0.42 0.41 0.39 0.35 0.34 0.34 0.33 0.33 0.31 0.31 0.31 0.30 0.30 0.29 0.30 0.32 0.33 0.36 0.43 0.44 0.43 0.43 0.45 0.36 0.24 0.13 0.14 0.29 0.41 0.42 0.47 0.62 0.70 0.72 0.75 0.74 0.83 0.79 0.68 0.57 0.53 0.52 0.51 0.47 0.48 0.53 0.45 0.52 0.80 0.75 0.94 0.82 0.74 0.86 0.92 1.14 1.24 1.26 1.33 1.38 1.36 1.34 1.34 1.33 1.33 1.26 1.25 1.33 1.37 1.45 1.29 1.36 1.39 1.50 1.51 1.41 1.40 1.39 1.34 1.32 1.30 1.29 1.26 1.26
0.38 0.39 0.40 0.41 0.42 0.42 0.40 0.36 0.34 0.33 0.32 0.32 0.31 0.31 0.30 0.29 0.28 0.28 0.30 0.33 0.38 0.43 0.43 0.43 0.45 0.47 0.39 0.32 0.22 0.13 0.31 0.34 0.47 0.46 0.50 0.59 0.62 0.66 0.74 0.81 0.82 0.79 0.65 0.56 0.52 0.52 0.46 0.49 0.43 0.52 0.61 0.60 0.72 0.58 0.79 0.77 0.85 1.00 0.94 0.98 1.09 1.23 1.28 1.34 1.29 1.31 1.33 1.28 1.28 1.21 1.22 1.26 1.39 1.32 1.12 1.38 1.44 1.57 1.46 1.35 1.38 1.35 1.29 1.29 1.29 1.29 1.29 1.27
0.37 0.37 0.38 0.40 0.42 0.42 0.40 0.37 0.34 0.33 0.32 0.32 0.31 0.30 0.29 0.27 0.27 0.28 0.33 0.40 0.43 0.44 0.44 0.46 0.49 0.48 0.36 0.33 0.17 0.12 0.30 0.36 0.36 0.46 0.53 0.66 0.59 0.57 0.67 0.77 0.86 0.75 0.63 0.58 0.48 0.50 0.48 0.52 0.51 0.64 0.51 0.47 0.59 0.53 0.60 0.73 0.80 0.91 0.91 0.91 0.96 1.10 1.19 1.25 1.25 1.23 1.25 1.18 1.24 1.24 1.20 1.28 1.34 1.28 1.20 1.32 1.47 1.56 1.45 1.34 1.32 1.33 1.30 1.28 1.29 1.29 1.30 1.30
0.37 0.37 0.38 0.40 0.42 0.43 0.41 0.37 0.35 0.33 0.32 0.32 0.31 0.30 0.28 0.27 0.27 0.32 0.38 0.42 0.45 0.44 0.44 0.47 0.48 0.47 0.40 0.27 0.20 0.18 0.28 0.27 0.34 0.40 0.48 0.61 0.57 0.59 0.74 0.88 0.88 0.81 0.66 0.55 0.49 0.50 0.51 0.55 0.57 0.55 0.30 0.48 0.44 0.53 0.61 0.79 0.75 0.77 0.83 0.69 0.79 0.93 0.97 1.09 1.10 1.16 1.19 1.13 1.23 1.26 1.17 1.10 1.17 1.11 1.27 1.42 1.48 1.49 1.46 1.35 1.30 1.29 1.29 1.28 1.29 1.29 1.28 1.28
0.38 0.38 0.39 0.41 0.42 0.43 0.42 0.38 0.35 0.33 0.32 0.33 0.32 0.30 0.28 0.28 0.31 0.37 0.40 0.41 0.41 0.40 0.45 0.51 0.51 0.49 0.36 0.27 0.25 0.37 0.38 0.40 0.38 0.34 0.37 0.48 0.59 0.60 0.71 0.88 0.89 0.85 0.77 0.63 0.51 0.51 0.53 0.57 0.59 0.46 0.39 0.36 0.42 0.39 0.60 0.62 0.62 0.61 0.64 0.68 0.70 0.78 0.83 1.01 1.11 1.14 1.11 1.14 1.21 1.21 0.84 0.94 1.06 1.18 1.30 1.42 1.42 1.45 1.40 1.30 1.28 1.26 1.27 1.28 1.27 1.26 1.26 1.29
0.40 0.40 0.41 0.42 0.43 0.43 0.42 0.39 0.36 0.34 0.33 0.34 0.32 0.30 0.29 0.31 0.36 0.39 0.42 0.40 0.38 0.44 0.54 0.54 0.56 0.48 0.36 0.21 0.29 0.37 0.41 0.41 0.40 0.35 0.28 0.48 0.52 0.50 0.60 0.77 0.89 0.89 0.88 0.71 0.63 0.62 0.55 0.62 0.61 0.50 0.44 0.34 0.40 0.53 0.42 0.53 0.54 0.47 0.52 0.62 0.59 0.64 0.68 0.94 1.00 1.07 1.00 1.14 1.17 1.18 0.85 0.92 1.06 1.19 1.31 1.37 1.42 1.34 1.30 1.29 1.23 1.24 1.25 1.25 1.25 1.24 1.23 1.26
0.40 0.41 0.43 0.45 0.47 0.46 0.44 0.40 0.37 0.34 0.34 0.34 0.33 0.31 0.32 0.34 0.39 0.41 0.44 0.39 0.41 0.55 0.59 0.57 0.55 0.43 0.33 0.25 0.33 0.37 0.41 0.44 0.39 0.27 0.28 0.32 0.49 0.50 0.57 0.68 0.81 0.86 0.77 0.71 0.63 0.64 0.64 0.59 0.54 0.42 0.35 0.36 0.45 0.38 0.31 0.40 0.47 0.46 0.42 0.41 0.53 0.59 0.71 0.86 0.98 1.01 0.92 1.04 1.15 1.09 0.85 0.89 1.05 1.12 1.26 1.35 1.34 1.33 1.27 1.26 1.21 1.20 1.21 1.23 1.23 1.23 1.21 1.22
0.40 0.42 0.46 0.48 0.50 0.50 0.47 0.42 0.38 0.36 0.35 0.35 0.33 0.32 0.36 0.40 0.41 0.45 0.46 0.41 0.49 0.59 0.60 0.48 0.43 0.42 0.30 0.16 0.24 0.39 0.44 0.23 0.24 0.27 0.31 0.31 0.30 0.49 0.60 0.63 0.79 0.80 0.73 0.66 0.67 0.63 0.55 0.52 0.41 0.39 0.38 0.35 0.29 0.26 0.28 0.30 0.37 0.41 0.37 0.38 0.43 0.55 0.66 0.73 0.86 0.99 1.01 1.00 1.05 1.02 0.87 0.88 0.92 1.16 1.25 1.31 1.30 1.29 1.24 1.24 1.22 1.19 1.19 1.20 1.22 1.22 1.21 1.21
0.43 0.45 0.49 0.52 0.54 0.53 0.49 0.45 0.41 0.39 0.37 0.36 0.34 0.33 0.39 0.39 0.46 0.50 0.46 0.42 0.51 0.60 0.51 0.39 0.43 0.44 0.26 0.27 0.36 0.26 0.23 0.25 0.27 0.29 0.28 0.30 0.31 0.53 0.57 0.60 0.63 0.66 0.66 0.64 0.60 0.54 0.47 0.40 0.41 0.38 0.37 0.31 0.26 0.25 0.25 0.25 0.28 0.31 0.36 0.36 0.42 0.47 0.58 0.62 0.83 0.93 0.97 0.93 0.87 0.99 0.89 0.96 1.09 1.11 1.20 1.26 1.26 1.24 1.20 1.23 1.27 1.27 1.23 1.21 1.20 1.21 1.20 1.16
0.46 0.48 0.52 0.55 0.55 0.54 0.50 0.46 0.44 0.41 0.39 0.37 0.35 0.34 0.36 0.43 0.51 0.54 0.41 0.43 0.49 0.53 0.51 0.51 0.40 0.29 0.18 0.23 0.18 0.19 0.25 0.24 0.24 0.26 0.29 0.29 0.31 0.48 0.56 0.53 0.57 0.58 0.57 0.51 0.55 0.41 0.43 0.34 0.38 0.26 0.27 0.26 0.27 0.22 0.19 0.19 0.23 0.26 0.30 0.32 0.36 0.46 0.55 0.60 0.68 0.82 0.88 0.89 0.84 0.88 0.88 0.98 1.00 1.09 1.17 1.20 1.24 1.23 1.18 1.23 1.28 1.28 1.27 1.29 1.25 1.21 1.18 1.17
0.48 0.49 0.53 0.56 0.55 0.53 0.49 0.47 0.44 0.42 0.40 0.38 0.37 0.39 0.48 0.50 0.50 0.47 0.28 0.29 0.31 0.26 0.27 0.18 0.17 0.11 0.12 0.16 0.21 0.22 0.23 0.26 0.27 0.28 0.31 0.31 0.33 0.56 0.58 0.58 0.56 0.48 0.42 0.40 0.41 0.41 0.42 0.35 0.35 0.27 0.20 0.19 0.19 0.20 0.20 0.23 0.24 0.26 0.31 0.32 0.35 0.39 0.45 0.52 0.71 0.83 0.84 0.79 0.77 0.78 0.76 0.84 0.89 0.96 1.10 1.16 1.21 1.19 1.20 1.27 1.31 1.31 1.30 1.30 1.27 1.27 1.23 1.17
0.48 0.49 0.52 0.55 0.54 0.52 0.48 0.47 0.45 0.42 0.41 0.37 0.39 0.36 0.40 0.26 0.29 0.22 0.21 0.18 0.14 0.15 0.15 0.18 0.19 0.19 0.20 0.19 0.19 0.23 0.26 0.28 0.24 0.31 0.37 0.37 0.42 0.47 0.48 0.49 0.48 0.47 0.39 0.31 0.38 0.38 0.43 0.28 0.25 0.19 0.18 0.18 0.18 0.20 0.23 0.27 0.35 0.33 0.32 0.33 0.33 0.37 0.43 0.53 0.68 0.74 0.82 0.75 0.71 0.75 0.76 0.83 0.88 1.00 1.04 1.11 1.16 1.15 1.17 1.21 1.27 1.27 1.26 1.26 1.25 1.25 1.27 1.24
0.47 0.48 0.50 0.54 0.53 0.51 0.48 0.47 0.45 0.42 0.41 0.40 0.37 0.26 0.19 0.18 0.14 0.14 0.15 0.16 0.17 0.20 0.19 0.20 0.20 0.17 0.17 0.20 0.22 0.21 0.20 0.21 0.25 0.27 0.31 0.47 0.56 0.43 0.41 0.42 0.40 0.34 0.35 0.33 0.33 0.41 0.42 0.27 0.27 0.25 0.23 0.24 0.22 0.21 0.22 0.23 0.31 0.32 0.34 0.36 0.34 0.36 0.38 0.49 0.58 0.67 0.71 0.67 0.66 0.73 0.71 0.73 0.82 0.91 0.94 1.07 1.10 1.06 1.13 1.19 1.22 1.25 1.26 1.26 1.24 1.24 1.27 1.32
0.47 0.46 0.49 0.53 0.53 0.51 0.47 0.46 0.44 0.42 0.42 0.43 0.34 0.26 0.27 0.27 0.29 0.31 0.25 0.15 0.17 0.22 0.22 0.22 0.22 0.21 0.23 0.23 0.25 0.24 0.24 0.20 0.21 0.25 0.34 0.40 0.51 0.38 0.41 0.37 0.33 0.29 0.34 0.33 0.32 0.30 0.29 0.25 0.27 0.31 0.30 0.30 0.27 0.22 0.21 0.19 0.21 0.28 0.30 0.33 0.33 0.35 0.41 0.50 0.57 0.59 0.63 0.62 0.62 0.69 0.63 0.65 0.73 0.84 0.91 0.95 1.06 1.10 1.13 1.19 1.22 1.25 1.25 1.25 1.26 1.26 1.30 1.33
0.47 0.46 0.47 0.53 0.52 0.51 0.48 0.46 0.44 0.43 0.41 0.34 0.29 0.29 0.28 0.35 0.40 0.39 0.31 0.19 0.17 0.24 0.24 0.21 0.21 0.20 0.19 0.24 0.24 0.25 0.18 0.17 0.17 0.23 0.28 0.34 0.44 0.46 0.49 0.35 0.33 0.32 0.33 0.31 0.25 0.24 0.22 0.24 0.30 0.35 0.33 0.29 0.26 0.25 0.21 0.19 0.20 0.21 0.22 0.26 0.29 0.35 0.37 0.36 0.48 0.54 0.60 0.60 0.60 0.65 0.59 0.62 0.70 0.79 0.85 0.92 1.05 1.13 1.15 1.19 1.24 1.29 1.24 1.23 1.24 1.28 1.29 1.28
0.48 0.47 0.48 0.52 0.53 0.51 0.48 0.46 0.45 0.44 0.39 0.34 0.32 0.31 0.38 0.40 0.40 0.38 0.24 0.16 0.12 0.19 0.24 0.22 0.23 0.21 0.18 0.17 0.23 0.22 0.19 0.19 0.19 0.20 0.32 0.29 0.37 0.42 0.42 0.38 0.34 0.32 0.30 0.29 0.27 0.25 0.22 0.25 0.29 0.32 0.33 0.30 0.26 0.25 0.22 0.18 0.14 0.15 0.16 0.21 0.28 0.33 0.40 0.41 0.43 0.50 0.57 0.60 0.63 0.61 0.56 0.57 0.62 0.62 0.68 0.81 1.01 1.10 1.13 1.16 1.19 1.27 1.32 1.34 1.39 1.41 1.40 1.34
0.48 0.47 0.48 0.53 0.53 0.52 0.48 0.45 0.41 0.36 0.37 0.38 0.34 0.39 0.42 0.42 0.40 0.41 0.25 0.19 0.15 0.19 0.27 0.25 0.22 0.21 0.20 0.26 0.26 0.20 0.22 0.22 0.21 0.24 0.31 0.31 0.27 0.28 0.32 0.45 0.40 0.32 0.31 0.32 0.29 0.26 0.24 0.28 0.34 0.30 0.30 0.31 0.26 0.21 0.18 0.17 0.14 0.15 0.15 0.18 0.25 0.33 0.40 0.42 0.49 0.47 0.44 0.45 0.54 0.56 0.44 0.43 0.56 0.60 0.63 0.75 0.91 0.98 1.08 1.11 1.13 1.21 1.28 1.33 1.29 1.31 1.39 1.41
0.48 0.47 0.49 0.52 0.55 0.52 0.49 0.40 0.39 0.39 0.37 0.30 0.33 0.40 0.42 0.41 0.43 0.39 0.25 0.14 0.10 0.17 0.20 0.15 0.22 0.18 0.24 0.19 0.22 0.22 0.22 0.19 0.24 0.26 0.29 0.34 0.36 0.30 0.33 0.35 0.40 0.33 0.35 0.34 0.30 0.26 0.24 0.30 0.32 0.29 0.28 0.28 0.25 0.21 0.21 0.19 0.15 0.14 0.14 0.16 0.19 0.30 0.40 0.42 0.43 0.46 0.40 0.37 0.49 0.57 0.44 0.39 0.53 0.54 0.59 0.68 0.81 0.94 1.04 1.06 1.12 1.18 1.24 1.27 1.26 1.31 1.35 1.37
0.48 0.47 0.49 0.53 0.55 0.54 0.42 0.34 0.41 0.43 0.31 0.31 0.38 0.41 0.41 0.39 0.46 0.35 0.18 0.13 0.09 0.19 0.17 0.20 0.19 0.19 0.22 0.19 0.20 0.21 0.16 0.18 0.27 0.31 0.30 0.33 0.29 0.35 0.24 0.27 0.36 0.39 0.46 0.42 0.31 0.24 0.26 0.27 0.31 0.29 0.27 0.25 0.24 0.21 0.22 0.20 0.16 0.14 0.19 0.19 0.16 0.18 0.28 0.35 0.41 0.43 0.43 0.51 0.54 0.53 0.48 0.41 0.45 0.53 0.61 0.65 0.69 0.86 0.98 1.01 1.07 1.15 1.20 1.20 1.24 1.28 1.32 1.36
0.48 0.46 0.49 0.54 0.55 0.56 0.43 0.44 0.42 0.35 0.34 0.38 0.42 0.41 0.41 0.42 0.42 0.37 0.16 0.07 0.09 0.22 0.16 0.19 0.20 0.25 0.21 0.19 0.22 0.17 0.17 0.22 0.19 0.28 0.32 0.36 0.31 0.28 0.25 0.24 0.31 0.34 0.38 0.40 0.24 0.29 0.28 0.24 0.28 0.27 0.25 0.25 0.23 0.25 0.26 0.24 0.17 0.16 0.19 0.22 0.17 0.14 0.16 0.25 0.34 0.39 0.43 0.46 0.41 0.47 0.48 0.40 0.41 0.54 0.65 0.64 0.60 0.74 0.90 0.96 1.01 1.07 1.15 1.17 1.20 1.24 1.30 1.35
0.47 0.47 0.51 0.54 0.56 0.56 0.55 0.46 0.42 0.37 0.42 0.44 0.43 0.42 0.40 0.44 0.35 0.20 0.14 0.06 0.20 0.18 0.27 0.18 0.27 0.22 0.20 0.21 0.18 0.18 0.20 0.22 0.18 0.26 0.32 0.35 0.36 0.30 0.22 0.25 0.28 0.33 0.40 0.37 0.30 0.34 0.36 0.31 0.29 0.30 0.26 0.24 0.29 0.31 0.30 0.28 0.21 0.20 0.22 0.27 0.22 0.18 0.14 0.16 0.24 0.32 0.40 0.41 0.34 0.42 0.47 0.37 0.36 0.48 0.53 0.58 0.59 0.66 0.79 0.90 0.99 1.02 1.07 1.13 1.16 1.22 1.28 1.35
0.47 0.48 0.52 0.56 0.56 0.57 0.52 0.53 0.44 0.47 0.47 0.46 0.44 0.41 0.39 0.34 0.25 0.13 0.09 0.07 0.20 0.14 0.19 0.20 0.19 0.17 0.19 0.16 0.17 0.16 0.17 0.20 0.23 0.25 0.29 0.25 0.29 0.33 0.30 0.32 0.26 0.25 0.29 0.39 0.36 0.39 0.41 0.45 0.40 0.34 0.27 0.28 0.33 0.37 0.37 0.32 0.29 0.28 0.24 0.24 0.22 0.19 0.16 0.15 0.19 0.29 0.34 0.29 0.33 0.42 0.45 0.42 0.32 0.41 0.46 0.49 0.52 0.60 0.73 0.85 0.97 1.04 1.06 1.11 1.15 1.19 1.24 1.29
0.47 0.49 0.53 0.57 0.49 0.48 0.47 0.44 0.44 0.48 0.49 0.48 0.43 0.38 0.33 0.25 0.15 0.12 0.08 0.14 0.18 0.17 0.20 0.19 0.18 0.21 0.17 0.16 0.14 0.17 0.18 0.19 0.21 0.23 0.25 0.27 0.25 0.26 0.28 0.26 0.29 0.25 0.25 0.29 0.33 0.34 0.39 0.43 0.41 0.39 0.38 0.34 0.34 0.37 0.42 0.40 0.36 0.30 0.24 0.23 0.21 0.18 0.20 0.18 0.19 0.24 0.22 0.20 0.30 0.40 0.43 0.44 0.31 0.35 0.48 0.55 0.60 0.58 0.60 0.73 0.88 0.96 1.02 1.07 1.13 1.18 1.21 1.25
0.46 0.49 0.55 0.54 0.54 0.54 0.41 0.37 0.47 0.52 0.50 0.48 0.40 0.30 0.25 0.16 0.17 0.09 0.11 0.22 0.11 0.16 0.16 0.17 0.19 0.18 0.17 0.18 0.16 0.16 0.15 0.19 0.21 0.22 0.22 0.23 0.22 0.21 0.22 0.23 0.26 0.18 0.18 0.21 0.23 0.31 0.30 0.34 0.43 0.44 0.45 0.37 0.34 0.33 0.38 0.41 0.38 0.32 0.27 0.25 0.17 0.17 0.17 0.14 0.18 0.16 0.17 0.18 0.26 0.34 0.41 0.37 0.35 0.40 0.50 0.53 0.55 0.57 0.59 0.65 0.81 0.92 1.00 1.07 1.11 1.14 1.17 1.22
0.47 0.51 0.56 0.56 0.56 0.53 0.52 0.53 0.55 0.55 0.52 0.47 0.35 0.30 0.19 0.14 0.11 0.16 0.15 0.15 0.14 0.18 0.17 0.20 0.18 0.18 0.18 0.18 0.17 0.17 0.20 0.15 0.19 0.23 0.23 0.25 0.23 0.22 0.24 0.24 0.27 0.25 0.19 0.24 0.22 0.25 0.24 0.30 0.37 0.41 0.44 0.43 0.38 0.30 0.32 0.33 0.35 0.31 0.26 0.23 0.17 0.17 0.17 0.12 0.14 0.17 0.18 0.22 0.28 0.31 0.36 0.28 0.34 0.43 0.50 0.51 0.56 0.58 0.62 0.66 0.78 0.89 0.98 1.04 1.09 1.11 1.13 1.18
0.48 0.53 0.54 0.57 0.55 0.55 0.55 0.58 0.56 0.56 0.49 0.43 0.35 0.25 0.19 0.14 0.14 0.23 0.17 0.17 0.17 0.21 0.20 0.19 0.19 0.20 0.19 0.17 0.18 0.18 0.16 0.21 0.17 0.20 0.23 0.23 0.24 0.23 0.23 0.25 0.25 0.25 0.24 0.28 0.24 0.24 0.19 0.20 0.25 0.34 0.33 0.43 0.36 0.34 0.34 0.34 0.36 0.33 0.32 0.26 0.20 0.20 0.20 0.14 0.15 0.12 0.12 0.18 0.25 0.24 0.24 0.21 0.23 0.28 0.48 0.49 0.52 0.57 0.60 0.65 0.72 0.80 0.89 1.00 1.10 1.13 1.09 1.12
0.52 0.55 0.58 0.59 0.60 0.61 0.56 0.56 0.55 0.55 0.49 0.39 0.30 0.23 0.17 0.17 0.21 0.18 0.18 0.19 0.20 0.20 0.19 0.22 0.20 0.18 0.19 0.20 0.20 0.22 0.18 0.18 0.19 0.17 0.21 0.23 0.25 0.23 0.22 0.21 0.25 0.26 0.27 0.21 0.25 0.26 0.25 0.26 0.32 0.35 0.37 0.43 0.36 0.37 0.39 0.37 0.39 0.39 0.35 0.32 0.24 0.20 0.29 0.23 0.22 0.19 0.19 0.18 0.18 0.20 0.14 0.25 0.27 0.39 0.44 0.49 0.50 0.50 0.53 0.57 0.64 0.73 0.81 0.88 0.97 1.04 1.07 1.07
0.54 0.56 0.58 0.55 0.54 0.53 0.55 0.56 0.55 0.54 0.46 0.35 0.26 0.21 0.19 0.23 0.19 0.22 0.22 0.24 0.22 0.20 0.20 0.22 0.20 0.18 0.18 0.20 0.22 0.20 0.24 0.18 0.20 0.17 0.21 0.22 0.25 0.23 0.25 0.24 0.23 0.27 0.25 0.23 0.32 0.25 0.27 0.25 0.38 0.41 0.41 0.39 0.40 0.41 0.38 0.41 0.30 0.39 0.37 0.27 0.26 0.30 0.28 0.25 0.28 0.30 0.28 0.25 0.19 0.26 0.24 0.21 0.26 0.30 0.37 0.38 0.39 0.42 0.46 0.50 0.56 0.65 0.74 0.80 0.84 0.94 1.02 1.06
0.50 0.56 0.54 0.55 0.52 0.54 0.56 0.55 0.55 0.50 0.44 0.34 0.26 0.22 0.26 0.26 0.28 0.25 0.27 0.26 0.24 0.23 0.22 0.17 0.20 0.18 0.18 0.17 0.20 0.21 0.22 0.21 0.22 0.17 0.21 0.23 0.22 0.25 0.25 0.25 0.27 0.27 0.30 0.29 0.28 0.35 0.27 0.26 0.39 0.38 0.36 0.44 0.47 0.43 0.43 0.42 0.44 0.43 0.36 0.34 0.34 0.33 0.29 0.24 0.16 0.21 0.19 0.16 0.20 0.25 0.23 0.24 0.21 0.13 0.23 0.28 0.30 0.34 0.38 0.42 0.51 0.60 0.68 0.72 0.77 0.83 0.94 1.01
0.52 0.53 0.54 0.55 0.55 0.57 0.58 0.57 0.53 0.48 0.40 0.33 0.27 0.28 0.29 0.27 0.31 0.29 0.30 0.27 0.26 0.25 0.22 0.20 0.21 0.22 0.20 0.19 0.19 0.21 0.22 0.17 0.22 0.20 0.19 0.22 0.23 0.33 0.27 0.27 0.28 0.27 0.30 0.35 0.29 0.33 0.34 0.24 0.33 0.37 0.38 0.44 0.46 0.43 0.36 0.42 0.45 0.44 0.41 0.49 0.33 0.24 0.21 0.26 0.25 0.17 0.16 0.13 0.15 0.18 0.19 0.19 0.21 0.18 0.21 0.17 0.19 0.24 0.30 0.37 0.43 0.51 0.59 0.64 0.71 0.80 0.87 0.93
0.58 0.53 0.47 0.55 0.61 0.59 0.59 0.58 0.52 0.44 0.37 0.31 0.28 0.26 0.29 0.31 0.33 0.31 0.31 0.30 0.27 0.25 0.22 0.23 0.20 0.24 0.21 0.21 0.22 0.23 0.24 0.18 0.22 0.21 0.18 0.24 0.18 0.32 0.29 0.29 0.27 0.29 0.30 0.32 0.30 0.33 0.35 0.25 0.26 0.37 0.36 0.43 0.44 0.41 0.30 0.33 0.43 0.47 0.51 0.45 0.45 0.39 0.30 0.25 0.25 0.25 0.24 0.18 0.18 0.14 0.18 0.16 0.20 0.20 0.23 0.23 0.22 0.21 0.24 0.29 0.34 0.43 0.52 0.60 0.67 0.78 0.84 0.87
0.51 0.50 0.45 0.61 0.64 0.62 0.60 0.56 0.50 0.40 0.35 0.29 0.30 0.30 0.33 0.30 0.32 0.33 0.33 0.31 0.26 0.25 0.25 0.23 0.25 0.22 0.25 0.23 0.23 0.22 0.25 0.22 0.22 0.22 0.20 0.25 0.22 0.33 0.29 0.32 0.28 0.28 0.30 0.31 0.31 0.34 0.29 0.37 0.24 0.35 0.41 0.41 0.32 0.37 0.31 0.35 0.34 0.37 0.39 0.41 0.41 0.37 0.40 0.38 0.33 0.25 0.21 0.19 0.20 0.20 0.16 0.18 0.24 0.25 0.20 0.22 0.28 0.29 0.26 0.27 0.31 0.39 0.46 0.55 0.66 0.73 0.79 0.86
0.58 0.48 0.49 0.65 0.64 0.62 0.59 0.51 0.42 0.35 0.33 0.34 0.35 0.33 0.34 0.32 0.33 0.34 0.34 0.33 0.30 0.31 0.27 0.26 0.25 0.24 0.25 0.23 0.23 0.27 0.24 0.24 0.25 0.22 0.23 0.24 0.21 0.22 0.34 0.28 0.31 0.27 0.30 0.30 0.29 0.34 0.30 0.32 0.26 0.32 0.35 0.31 0.32 0.41 0.38 0.38 0.40 0.41 0.38 0.36 0.40 0.37 0.33 0.29 0.24 0.31 0.28 0.22 0.21 0.21 0.18 0.27 0.30 0.30 0.23 0.20 0.25 0.27 0.30 0.32 0.35 0.39 0.44 0.49 0.62 0.70 0.74 0.83
0.52 0.42 0.47 0.66 0.66 0.60 0.53 0.39 0.38 0.41 0.36 0.34 0.33 0.36 0.35 0.38 0.34 0.34 0.35 0.35 0.33 0.30 0.32 0.29 0.29 0.26 0.26 0.26 0.25 0.26 0.26 0.24 0.25 0.26 0.25 0.21 0.30 0.24 0.34 0.32 0.30 0.30 0.28 0.28 0.32 0.40 0.36 0.40 0.35 0.31 0.35 0.34 0.37 0.44 0.46 0.44 0.44 0.45 0.45 0.41 0.43 0.43 0.42 0.33 0.24 0.26 0.29 0.27 0.27 0.26 0.22 0.24 0.35 0.34 0.28 0.24 0.21 0.20 0.22 0.26 0.28 0.33 0.41 0.48 0.56 0.64 0.71 0.79
0.49 0.45 0.62 0.66 0.67 0.57 0.47 0.39 0.41 0.39 0.37 0.37 0.41 0.39 0.40 0.37 0.36 0.36 0.34 0.35 0.32 0.33 0.30 0.29 0.29 0.27 0.30 0.28 0.29 0.27 0.28 0.25 0.26 0.25 0.28 0.29 0.28 0.31 0.32 0.29 0.30 0.29 0.30 0.32 0.34 0.40 0.38 0.30 0.28 0.30 0.36 0.40 0.45 0.45 0.47 0.46 0.43 0.43 0.45 0.48 0.46 0.42 0.44 0.40 0.35 0.36 0.33 0.31 0.26 0.24 0.18 0.24 0.34 0.38 0.33 0.26 0.28 0.25 0.26 0.30 0.36 0.38 0.40 0.45 0.52 0.62 0.70 0.78
0.52 0.51 0.54 0.65 0.65 0.59 0.45 0.33 0.33 0.36 0.37 0.39 0.39 0.37 0.40 0.38 0.37 0.36 0.34 0.36 0.33 0.32 0.30 0.30 0.32 0.32 0.30 0.33 0.31 0.28 0.32 0.24 0.32 0.29 0.28 0.33 0.27 0.39 0.33 0.29 0.30 0.30 0.27 0.38 0.32 0.43 0.28 0.31 0.28 0.25 0.26 0.29 0.32 0.38 0.41 0.45 0.43 0.39 0.41 0.45 0.48 0.47 0.47 0.46 0.43 0.43 0.32 0.34 0.33 0.26 0.17 0.24 0.33 0.39 0.34 0.27 0.24 0.25 0.26 0.28 0.30 0.31 0.34 0.42 0.54 0.73 0.77 0.83
0.55 0.58 0.55 0.57 0.61 0.55 0.40 0.43 0.38 0.36 0.37 0.37 0.37 0.35 0.37 0.38 0.39 0.38 0.36 0.35 0.36 0.34 0.32 0.32 0.33 0.34 0.32 0.35 0.32 0.33 0.32 0.29 0.26 0.31 0.29 0.31 0.29 0.38 0.34 0.31 0.31 0.27 0.32 0.37 0.40 0.42 0.31 0.32 0.33 0.23 0.21 0.20 0.20 0.22 0.26 0.32 0.35 0.40 0.43 0.44 0.46 0.46 0.45 0.43 0.36 0.38 0.30 0.36 0.39 0.32 0.29 0.34 0.45 0.44 0.37 0.32 0.28 0.23 0.26 0.28 0.31 0.31 0.33 0.39 0.45 0.53 0.65 0.79
0.47 0.39 0.47 0.51 0.55 0.51 0.47 0.48 0.45 0.40 0.36 0.36 0.34 0.35 0.36 0.34 0.39 0.39 0.39 0.36 0.37 0.36 0.36 0.34 0.36 0.35 0.33 0.34 0.32 0.32 0.32 0.34 0.30 0.29 0.32 0.30 0.31 0.33 0.38 0.33 0.30 0.28 0.29 0.32 0.33 0.36 0.30 0.33 0.33 0.32 0.30 0.30 0.33 0.37 0.40 0.42 0.41 0.37 0.39 0.40 0.40 0.45 0.48 0.47 0.45 0.40 0.34 0.37 0.35 0.36 0.40 0.39 0.40 0.37 0.36 0.32 0.27 0.23 0.24 0.27 0.31 0.30 0.35 0.40 0.48 0.54 0.59 0.61
0.55 0.42 0.43 0.38 0.50 0.46 0.43 0.45 0.41 0.42 0.36 0.41 0.34 0.36 0.33 0.33 0.34 0.37 0.39 0.33 0.39 0.36 0.35 0.35 0.35 0.31 0.35 0.33 0.33 0.32 0.33 0.32 0.34 0.32 0.31 0.31 0.33 0.35 0.37 0.34 0.31 0.30 0.30 0.27 0.36 0.30 0.28 0.27 0.29 0.30 0.32 0.34 0.39 0.38 0.39 0.39 0.36 0.37 0.38 0.38 0.40 0.40 0.42 0.44 0.41 0.39 0.51 0.44 0.34 0.41 0.41 0.37 0.42 0.37 0.35 0.39 0.46 0.43 0.41 0.46 0.50 0.47 0.50 0.48 0.51 0.59 0.56 0.58
0.44 0.48 0.53 0.51 0.42 0.35 0.39 0.38 0.41 0.41 0.41 0.42 0.36 0.38 0.33 0.33 0.33 0.32 0.39 0.40 0.38 0.39 0.32 0.38 0.37 0.38 0.37 0.33 0.32 0.27 0.32 0.31 0.31 0.29 0.33 0.33 0.33 0.35 0.33 0.34 0.31 0.33 0.29 0.31 0.33 0.28 0.27 0.24 0.27 0.29 0.29 0.33 0.36 0.39 0.41 0.39 0.39 0.38 0.38 0.38 0.37 0.39 0.39 0.39 0.42 0.46 0.49 0.42 0.37 0.44 0.49 0.43 0.39 0.38 0.41 0.44 0.48 0.46 0.42 0.48 0.51 0.49 0.55 0.59 0.57 0.55 0.53 0.54
0.55 0.53 0.52 0.56 0.43 0.45 0.43 0.42 0.44 0.41 0.40 0.40 0.38 0.37 0.33 0.33 0.32 0.36 0.35 0.35 0.37 0.36 0.36 0.29 0.33 0.36 0.37 0.37 0.34 0.30 0.33 0.26 0.28 0.35 0.33 0.33 0.33 0.32 0.29 0.31 0.33 0.34 0.31 0.29 0.30 0.32 0.27 0.22 0.25 0.28 0.27 0.30 0.33 0.37 0.40 0.38 0.37 0.37 0.38 0.38 0.39 0.39 0.38 0.39 0.41 0.46 0.46 0.46 0.51 0.53 0.49 0.45 0.44 0.45 0.49 0.47 0.48 0.47 0.48 0.53 0.68 0.71 0.68 0.62 0.63 0.63 0.63 0.62
0.50 0.49 0.46 0.54 0.51 0.47 0.45 0.44 0.42 0.40 0.36 0.39 0.36 0.36 0.36 0.35 0.34 0.37 0.40 0.36 0.32 0.35 0.40 0.33 0.34 0.37 0.38 0.36 0.36 0.32 0.35 0.35 0.34 0.30 0.36 0.33 0.33 0.34 0.32 0.32 0.30 0.34 0.33 0.28 0.28 0.32 0.25 0.23 0.30 0.30 0.26 0.25 0.30 0.34 0.36 0.38 0.36 0.33 0.36 0.39 0.39 0.39 0.39 0.39 0.39 0.42 0.46 0.47 0.52 0.50 0.48 0.43 0.48 0.64 0.52 0.50 0.47 0.49 0.51 0.56 0.68 0.69 0.63 0.62 0.61 0.65 0.68 0.70
0.63 0.64 0.61 0.49 0.42 0.45 0.46 0.45 0.41 0.39 0.36 0.38 0.36 0.37 0.37 0.38 0.36 0.40 0.38 0.43 0.38 0.35 0.37 0.34 0.38 0.37 0.39 0.37 0.36 0.36 0.39 0.37 0.37 0.35 0.36 0.35 0.29 0.36 0.33 0.34 0.37 0.30 0.32 0.29 0.29 0.28 0.27 0.23 0.25 0.24 0.21 0.21 0.27 0.31 0.33 0.34 0.36 0.35 0.35 0.36 0.38 0.38 0.36 0.37 0.36 0.40 0.43 0.49 0.54 0.52 0.44 0.42 0.50 0.68 0.62 0.54 0.49 0.47 0.51 0.63 0.69 0.67 0.63 0.59 0.61 0.64 0.67 0.69
0.68 0.69 0.67 0.56 0.41 0.46 0.43 0.45 0.43 0.41 0.33 0.39 0.40 0.39 0.38 0.39 0.42 0.43 0.36 0.46 0.44 0.43 0.41 0.40 0.41 0.37 0.37 0.37 0.35 0.38 0.40 0.39 0.37 0.37 0.38 0.38 0.38 0.36 0.37 0.36 0.36 0.31 0.30 0.29 0.30 0.27 0.27 0.25 0.22 0.20 0.17 0.19 0.26 0.31 0.33 0.33 0.32 0.30 0.33 0.36 0.38 0.40 0.40 0.42 0.47 0.63 0.57 0.58 0.51 0.48 0.47 0.61 0.66 0.69 0.59 0.56 0.54 0.50 0.51 0.64 0.67 0.62 0.64 0.63 0.62 0.66 0.69 0.71
Wind_Speed
16 16 16 16 16 16 16 16 16 15 15 15 15 14 14 14 14 14 14 13 13 13 13 13 13 12 12 11 10 10 10 10 9 10 10 10 9 10 11 11 14 16 15 16 18 19 19 20 20 19 17 16 15 13 13 12 11 9 8 8 7 7 6 6 5 4 5 7 9 10 11 9 9 9 8 8 8 9 9 8 8 8 6 7 11 16 18 18
16 17 17 17 17 17 17 16 16 16 16 16 15 15 15 15 15 14 14 14 14 13 13 14 14 13 12 11 11 10 10 10 10 11 11 10 9 10 12 12 14 17 17 17 19 19 19 20 21 20 18 16 15 14 13 12 12 10 9 8 7 6 6 6 5 4 4 6 8 10 11 9 9 9 8 8 8 9 9 8 8 8 8 9 13 16 18 19
17 17 17 17 17 17 17 17 17 16 16 16 16 16 15 15 15 15 15 14 14 14 14 14 14 14 13 12 11 10 10 11 10 9 9 9 10 10 12 14 15 17 18 18 19 20 20 20 21 20 18 17 16 15 14 13 12 11 10 9 7 7 7 7 6 5 5 6 9 10 11 10 9 9 8 8 9 9 9 8 9 9 10 10 12 16 18 19
18 18 18 18 18 17 17 17 17 17 17 16 16 16 16 16 16 16 16 15 15 15 14 14 14 13 12 11 11 10 11 11 10 8 8 10 10 10 13 15 16 18 18 18 19 20 19 19 20 20 19 17 17 16 15 14 12 11 11 9 7 8 7 7 7 5 5 6 9 10 11 10 9 9 9 9 9 8 8 9 9 10 11 12 13 16 18 19
18 18 18 18 18 18 18 17 17 17 17 17 17 17 16 16 16 16 16 16 16 15 15 14 13 12 12 11 11 11 11 11 9 8 9 10 10 10 14 16 17 18 18 18 19 19 19 19 20 20 19 18 17 17 16 16 14 11 12 11 9 9 7 8 7 5 5 6 8 10 11 10 10 9 9 9 8 6 7 9 9 11 13 13 14 16 18 19
18 18 18 18 18 18 18 18 18 17 17 17 17 17 17 17 17 17 17 16 16 16 15 14 13 12 11 11 12 12 12 11 9 9 10 10 10 11 14 16 17 18 18 18 19 19 20 20 20 20 19 18 18 18 17 17 16 13 12 12 11 11 9 8 8 6 6 7 8 10 10 10 10 9 9 10 7 4 7 9 9 11 13 15 16 16 17 19
19 19 19 19 19 18 18 18 18 18 17 17 17 17 17 17 17 17 17 17 16 16 15 14 13 12 12 12 12 13 14 12 11 11 10 9 10 11 14 17 18 18 18 19 20 20 20 21 21 20 19 19 19 19 18 18 18 15 13 12 12 12 11 10 9 7 7 8 8 9 10 10 10 9 8 10 8 5 7 9 10 11 13 15 16 17 17 19
19 19 19 19 19 19 19 18 18 18 17 17 17 17 17 17 17 17 17 17 16 16 15 13 13 13 13 13 13 14 15 13 12 12 10 10 10 12 15 17 18 18 19 20 20 20 21 21 22 20 19 19 18 19 19 18 19 18 15 13 13 13 12 11 10 9 9 9 9 10 10 10 10 9 8 10 8 7 9 9 10 12 13 14 16 17 17 18
20 20 20 20 20 19 19 19 18 18 18 18 18 18 18 18 18 18 17 17 16 15 14 13 13 14 14 14 15 15 13 13 13 12 11 10 11 13 16 17 19 19 19 21 21 21 21 21 22 20 19 18 18 19 20 19 17 18 18 15 14 14 13 12 12 11 10 10 10 10 11 10 10 9 9 10 10 9 10 10 11 12 13 14 15 17 17 18
20 20 20 20 20 20 19 19 19 18 18 18 19 19 18 18 18 18 17 17 15 14 14 14 14 14 15 15 16 15 13 14 14 13 12 12 12 15 17 18 20 20 19 20 21 22 21 21 22 20 18 18 19 19 20 20 16 16 18 17 17 16 15 14 14 13 12 12 12 11 11 10 11 10 9 11 12 11 12 11 11 12 13 14 15 16 17 19
21 21 21 21 20 20 20 19 19 19 19 19 19 19 19 19 19 18 17 16 14 14 14 14 14 15 16 16 16 15 14 15 15 14 14 13 13 16 18 18 20 21 20 20 22 23 23 21 21 20 17 17 19 19 20 21 18 16 17 16 18 18 17 17 16 15 14 12 13 13 11 11 12 11 10 11 13 12 12 12 12 12 12 14 15 16 17 18
21 21 21 21 21 21 20 20 19 19 20 20 20 20 20 20 19 18 16 15 14 15 15 14 15 15 16 16 16 15 15 16 15 15 15 15 15 17 18 19 20 21 20 20 22 23 23 21 21 21 17 16 18 18 18 20 20 18 18 17 17 18 18 19 18 17 15 13 13 13 12 13 13 13 12 11 13 13 13 13 13 12 12 13 14 15 16 18
22 22 22 22 22 22 21 20 20 20 20 20 21 21 20 19 18 17 15 14 15 15 14 14 15 15 16 15 14 14 15 15 15 15 15 16 17 17 19 20 21 21 20 21 21 23 24 22 22 22 19 17 17 16 16 19 20 19 18 18 16 17 18 20 19 18 17 15 15 15 13 13 14 15 14 13 14 14 13 13 13 12 12 13 14 15 16 18
24 24 24 24 23 23 22 21 21 21 21 21 21 21 20 19 18 16 15 15 16 15 14 14 14 14 15 15 14 14 15 15 16 16 16 17 17 18 19 20 21 21 20 21 21 23 24 23 23 23 21 19 17 17 17 17 19 19 18 17 16 16 17 19 20 20 18 16 16 16 13 12 13 15 15 14 15 15 14 14 14 13 12 13 14 15 16 18
25 25 25 25 25 24 23 23 22 22 22 22 22 21 20 19 17 16 15 16 16 15 14 14 14 14 16 15 15 15 15 16 17 17 17 18 18 19 20 21 22 21 20 21 22 22 23 24 24 23 22 21 19 18 19 17 18 19 18 18 18 17 16 17 19 20 19 17 18 17 14 12 12 14 16 16 16 15 14 14 14 14 13 14 14 15 16 17
26 26 26 26 26 25 24 24 23 23 23 23 23 21 19 18 17 16 16 17 16 14 14 14 14 15 15 14 14 15 16 17 18 18 19 19 19 20 20 22 23 23 21 21 22 22 23 23 24 24 22 22 21 20 19 19 19 19 19 18 19 19 17 16 18 21 20 17 19 19 14 11 11 14 17 16 17 16 15 15 15 14 14 14 14 15 16 17
26 27 27 27 27 26 25 24 23 23 23 23 22 20 19 18 17 16 17 16 15 15 15 15 15 16 15 14 15 16 17 18 18 19 20 20 21 21 21 22 23 23 23 22 23 23 24 24 24 24 23 22 22 21 21 21 21 19 20 19 19 20 20 17 17 21 22 19 19 20 17 14 11 13 17 17 17 17 16 16 16 15 15 14 15 15 16 17
27 28 28 28 27 26 24 23 22 23 23 23 22 19 18 17 16 17 17 16 16 16 16 15 15 16 15 15 16 18 18 18 18 18 20 20 21 22 22 22 23 24 24 23 24 25 25 25 24 24 24 24 23 23 22 21 21 21 21 20 20 19 21 20 17 18 22 21 20 21 20 18 14 13 16 17 17 17 17 16 16 16 16 15 15 16 16 17
28 28 28 28 27 25 23 22 22 22 22 22 20 18 17 17 17 17 18 17 17 17 16 16 16 16 16 17 18 18 18 18 17 17 19 20 21 22 23 23 24 25 25 24 26 27 25 24 25 25 25 26 26 25 24 20 20 22 22 22 22 20 20 21 18 16 21 22 21 22 20 20 17 15 17 17 17 18 17 17 16 16 16 16 16 16 17 17
28 28 28 28 27 25 23 21 21 21 21 20 19 17 17 17 17 17 18 18 17 17 17 17 17 17 18 19 19 19 18 17 16 16 18 20 22 23 23 24 25 26 26 25 26 27 27 25 26 26 25 26 27 27 26 22 19 19 21 22 23 21 19 21 20 17 18 20 21 23 21 20 19 18 18 18 18 19 18 18 17 17 17 16 17 17 17 17
29 29 29 28 27 24 22 21 20 20 20 18 17 15 15 16 16 16 18 17 16 17 17 17 17 18 18 19 19 18 18 17 15 15 17 20 23 24 23 25 26 26 27 26 26 27 28 27 27 27 26 25 26 27 28 26 22 20 20 21 22 22 19 19 20 19 18 19 20 22 22 21 21 20 18 19 20 19 19 19 18 18 18 17 17 18 17 17
29 29 29 28 26 24 22 20 20 19 19 17 15 14 13 14 15 16 17 17 16 16 16 17 17 18 18 18 18 18 19 18 16 15 17 20 24 25 24 26 27 26 28 28 26 27 28 29 28 27 26 25 24 26 28 28 26 23 22 22 22 23 21 19 19 19 18 18 19 20 21 21 21 21 20 20 21 20 20 21 20 19 19 18 18 18 18 18
29 29 29 28 26 24 22 20 19 18 17 15 14 14 14 15 16 16 16 17 16 15 16 16 17 17 17 17 17 19 19 18 17 17 17 21 25 25 25 27 27 27 29 30 29 28 28 28 28 27 26 26 25 25 27 27 26 25 24 23 23 23 22 21 20 21 20 19 20 20 20 20 21 22 22 21 22 22 21 22 21 20 20 19 18 18 18 19
29 29 28 28 26 24 22 20 19 17 16 16 15 15 16 16 17 16 16 17 16 15 16 16 16 16 17 17 18 19 18 17 18 18 18 21 23 24 26 27 28 28 29 32 31 30 28 25 27 29 28 27 27 25 26 26 25 27 27 25 24 23 24 21 18 19 20 20 21 21 20 20 21 22 22 21 22 23 23 23 22 21 21 19 18 18 19 19
28 28 27 27 25 23 22 19 18 17 17 16 16 17 18 17 17 16 16 16 15 15 16 16 16 16 16 17 17 18 18 18 18 18 19 21 23 24 26 27 28 29 30 32 32 32 30 26 25 29 29 28 28 27 27 26 24 26 28 28 27 24 24 23 19 18 19 21 23 24 21 20 22 24 23 22 22 24 23 23 23 22 21 20 19 19 19 19
28 28 27 26 24 22 20 17 17 18 18 16 17 19 19 18 18 16 16 16 15 14 15 16 16 16 16 16 16 17 18 17 17 19 19 21 23 25 25 26 28 29 30 31 31 30 31 29 27 29 29 29 30 28 28 28 25 25 26 28 30 27 24 24 23 21 20 20 20 23 23 20 20 24 25 24 23 24 24 23 24 23 22 21 20 20 20 20
27 27 27 25 23 21 18 17 18 19 18 18 19 20 19 19 17 16 16 17 15 15 15 15 15 16 16 17 17 17 17 17 17 18 19 20 23 24 26 27 28 30 29 29 30 30 31 32 30 30 30 30 30 29 28 28 27 24 23 25 30 30 28 25 25 24 22 20 19 21 23 22 20 21 23 25 25 25 25 25 24 24 23 22 21 21 21 20
27 27 26 25 23 20 18 18 19 18 18 19 20 20 19 18 16 15 17 16 14 14 15 14 15 16 17 17 17 16 17 18 18 17 18 20 22 24 26 28 29 30 30 31 31 29 31 34 32 31 31 30 29 28 28 29 28 26 23 23 26 29 30 28 26 26 24 23 23 23 23 22 22 21 21 23 26 26 25 25 25 24 24 24 22 22 22 21
27 26 25 24 22 19 18 18 18 18 19 20 20 20 18 16 15 16 17 16 13 13 14 14 14 15 16 16 15 15 16 17 18 18 19 20 21 23 25 26 28 30 32 34 33 29 29 32 34 32 32 30 29 28 28 29 29 27 25 23 24 26 29 29 28 27 26 26 27 26 25 22 22 24 23 23 25 26 25 24 25 25 25 24 23 23 22 22
26 26 25 23 20 18 18 17 17 18 19 19 19 19 16 14 15 16 15 14 12 12 13 14 14 15 15 14 13 14 15 16 17 18 19 20 21 22 23 24 27 29 31 33 35 34 30 29 32 34 33 31 30 28 28 29 28 27 27 25 24 25 26 28 28 27 26 27 29 29 27 24 22 23 25 25 25 25 24 23 24 26 26 25 24 23 23 22
26 25 23 20 18 18 18 17 17 19 19 18 18 16 14 13 15 16 14 13 12 12 12 12 12 13 13 13 12 13 14 15 16 16 17 19 20 21 22 24 26 28 30 32 33 36 35 32 31 32 34 33 31 30 29 29 28 27 27 26 24 24 24 25 27 28 27 27 28 29 29 27 25 24 23 24 25 25 25 24 24 26 27 26 24 24 23 23
25 24 21 19 18 18 18 17 18 18 17 17 15 13 12 13 14 14 12 12 13 12 11 11 11 12 12 12 12 13 13 13 14 15 15 17 18 20 21 22 24 26 29 31 31 33 36 36 33 31 33 35 33 31 30 29 30 28 27 27 26 24 24 25 26 28 28 27 26 27 28 29 28 26 24 24 24 25 26 26 25 25 26 26 25 24 24 23
25 23 19 17 17 17 17 17 17 16 15 15 13 11 12 13 13 11 11 11 12 11 11 12 12 12 13 12 12 13 13 13 13 15 16 16 17 19 20 21 23 26 26 27 30 31 32 35 37 34 32 34 35 32 31 30 30 31 29 29 28 25 25 26 26 26 26 26 27 27 27 28 28 27 27 27 25 24 25 26 26 26 26 26 26 26 24 24
24 21 17 16 17 16 16 16 15 15 14 13 12 11 12 13 11 10 11 10 11 11 11 12 12 12 11 11 12 12 12 12 12 14 15 16 17 18 19 19 21 25 26 26 28 30 30 31 35 38 34 34 37 35 32 30 29 32 31 29 30 28 25 24 24 25 25 24 27 29 27 25 25 25 25 28 28 26 25 25 26 26 26 25 26 26 25 24
23 18 15 16 16 15 15 15 14 13 12 12 11 11 12 12 10 10 10 10 10 11 11 12 13 13 12 11 11 11 12 13 13 14 14 15 16 16 18 19 20 22 25 27 27 29 32 29 29 34 34 34 37 36 33 31 29 30 31 31 32 30 26 23 23 24 24 23 25 28 27 23 22 22 22 24 28 29 28 28 28 28 27 26 26 26 26 25
20 16 14 15 15 15 15 15 13 12 11 11 11 11 11 10 10 10 10 11 11 11 12 13 12 13 12 12 12 11 13 14 14 14 14 14 15 15 16 18 19 21 23 26 25 26 31 29 26 30 33 33 35 35 35 33 29 28 31 33 31 30 28 25 24 23 23 23 24 26 27 25 23 23 24 25 25 27 29 29 30 30 30 29 28 27 26 26
18 14 12 14 15 15 15 14 12 10 10 10 10 10 10 9 10 10 10 11 12 12 13 13 12 13 13 13 13 13 14 14 14 14 14 14 15 15 16 17 18 20 21 24 25 25 26 28 27 30 33 33 32 33 35 35 31 28 30 32 30 30 30 28 25 24 24 24 23 25 27 26 25 24 25 28 29 27 27 28 29 30 31 31 30 29 28 27
16 13 11 14 16 15 14 13 11 10 9 9 9 9 9 9 10 10 11 11 11 12 13 13 12 13 14 14 14 14 15 14 13 14 15 15 15 15 16 17 18 19 21 23 25 25 26 28 29 30 33 32 32 33 34 36 36 31 28 29 31 31 31 30 27 26 26 25 24 26 27 26 26 23 22 27 30 30 28 27 29 30 30 30 31 30 30 29
15 12 11 15 17 15 13 12 10 9 8 8 7 8 8 8 8 9 10 11 11 12 12 12 13 13 14 15 15 15 15 15 15 15 15 15 15 15 16 17 18 19 20 22 24 24 25 28 29 30 32 32 32 33 34 35 37 36 30 29 32 31 30 30 30 27 25 24 24 25 26 25 25 24 23 23 26 29 30 28 28 30 30 30 30 30 30 30
14 12 11 16 17 14 12 11 9 8 7 7 7 7 7 7 8 9 10 10 11 11 12 12 13 14 13 15 16 15 15 16 16 16 15 15 16 15 15 17 18 19 20 23 24 24 25 28 29 28 29 32 33 34 36 35 35 37 36 33 33 32 31 30 30 30 28 25 23 23 23 22 22 24 26 24 22 24 27 27 27 28 29 30 30 30 31 30
14 11 12 16 16 14 11 9 8 7 6 6 6 6 7 7 8 8 9 10 10 11 12 13 13 14 15 15 16 15 15 17 16 16 16 15 16 16 15 16 18 19 20 22 23 23 24 27 29 29 29 32 33 32 34 35 33 34 37 37 35 33 32 31 30 31 30 27 25 23 21 19 18 20 24 25 24 23 23 25 26 27 28 29 30 30 30 30
14 11 13 16 16 13 11 8 7 7 6 6 6 6 7 8 8 8 9 10 10 10 11 12 13 14 15 16 16 16 16 17 16 16 16 15 16 16 15 16 17 19 20 22 23 23 23 26 29 30 30 30 29 28 32 34 33 32 34 36 36 34 33 33 30 29 30 30 28 25 23 20 17 17 19 21 23 24 24 25 25 25 27 27 29 30 30 30
13 12 13 16 15 12 10 8 7 7 6 6 6 6 7 8 8 9 9 10 10 11 12 13 14 15 15 15 16 16 16 16 16 16 16 16 16 16 17 17 17 18 19 21 22 22 24 26 28 30 31 30 29 28 31 34 35 35 34 33 34 34 33 32 29 26 27 30 29 26 25 23 20 19 19 19 20 22 23 24 24 24 25 25 26 28 29 30
13 12 12 15 15 11 9 8 8 7 6 6 6 6 7 8 9 9 10 10 11 12 13 14 14 15 15 15 16 16 15 15 15 15 15 16 15 16 17 17 17 17 18 19 21 22 23 25 27 28 29 31 31 30 31 33 35 36 35 34 35 35 33 32 30 27 26 29 29 27 25 23 21 21 20 19 20 22 23 23 24 24 24 25 25 25 26 27
13 11 11 14 14 11 10 10 8 7 6 6 6 7 7 8 9 10 10 10 11 12 13 14 14 15 15 15 15 14 14 14 14 14 14 15 15 15 16 17 17 18 18 19 22 23 24 25 26 27 28 29 30 30 30 31 33 35 35 35 36 36 35 34 33 31 30 29 29 27 25 22 21 20 20 20 20 21 22 23 23 24 24 24 25 25 25 25
13 11 12 12 11 11 11 10 9 7 6 6 7 7 8 7 8 8 9 10 10 11 13 13 14 15 14 14 14 14 14 14 14 14 14 15 16 15 16 17 18 19 19 20 22 23 25 26 27 28 29 28 26 26 27 28 30 33 34 34 35 37 37 35 35 35 32 30 31 30 26 23 21 19 19 19 18 18 19 19 20 22 22 23 24 25 26 27
12 11 12 11 10 10 11 11 10 9 7 7 7 7 8 8 8 8 9 10 10 12 13 13 14 14 12 12 12 12 13 13 14 14 15 16 16 16 17 18 18 18 19 20 22 22 24 27 28 29 31 29 27 26 28 29 31 32 32 33 34 35 37 38 37 35 31 30 33 32 28 27 24 19 16 16 17 17 18 17 18 19 21 22 22 24 25 26
12 11 12 11 10 10 11 11 11 10 9 8 8 8 8 9 9 10 9 10 10 11 12 12 12 12 11 11 11 11 11 12 12 12 13 14 15 16 17 18 18 18 19 20 21 21 23 26 28 29 30 30 29 28 29 31 33 33 33 34 34 34 37 38 38 36 32 31 32 29 27 28 27 22 18 17 17 18 18 18 19 20 21 22 22 23 24 24
12 11 11 11 10 11 12 11 11 10 10 10 9 9 10 10 11 11 11 11 11 11 12 13 12 11 11 10 10 10 10 10 10 10 10 11 13 14 15 16 17 17 18 20 20 20 22 24 26 27 29 30 30 30 30 31 33 34 34 35 34 35 36 37 37 37 35 34 33 30 28 28 27 23 21 19 18 19 20 20 20 21 21 21 22 23 23 23
12 11 11 11 11 11 12 11 10 10 11 10 10 10 11 11 12 12 12 12 11 11 12 13 13 12 10 9 8 9 9 10 11 10 10 11 11 12 13 14 15 16 17 19 20 20 21 22 23 25 27 29 30 31 32 33 33 35 36 35 35 36 36 36 36 37 37 36 34 34 33 31 27 23 23 22 20 20 21 22 22 22 21 21 22 22 23 23
12 11 11 10 11 11 11 11 11 10 11 11 11 11 11 12 13 13 12 12 12 11 12 13 13 12 9 8 8 8 9 10 11 12 12 12 12 12 12 13 14 16 18 19 20 21 22 22 23 24 26 28 29 29 31 32 33 35 37 37 37 36 36 36 35 36 37 36 35 35 35 32 28 25 25 25 23 22 23 23 22 22 22 22 23 23 23 23
12 11 10 10 10 11 11 11 11 10 11 12 12 12 12 12 13 14 13 11 11 12 12 13 13 12 9 8 7 8 9 10 12 13 13 13 13 14 14 15 16 17 18 19 20 21 22 22 22 23 25 26 27 28 29 30 32 35 37 38 38 37 36 35 34 34 35 35 34 34 32 30 28 27 26 25 25 24 24 24 23 22 22 23 24 24 24 24
Wind_Direction
331 329 326 324 322 321 320 319 317 316 314 313 311 310 308 307 305 304 303 300 297 295 293 292 291 290 286 282 280 278 275 270 265 255 248 249 247 235 224 217 210 204 199 193 190 190 191 196 197 195 197 199 203 202 199 201 200 198 197 198 195 186 175 172 169 164 170 164 163 169 173 167 159 161 157 156 159 155 161 164 162 161 158 152 149 152 156 159
330 328 326 324 322 320 319 318 316 314 313 312 310 309 307 306 304 303 301 300 297 295 292 290 289 288 284 278 275 273 271 265 261 257 249 248 250 239 223 215 209 203 198 192 191 192 192 196 197 197 199 202 204 202 200 201 201 202 202 203 197 182 176 180 179 171 172 168 169 175 177 174 165 161 161 164 162 161 166 167 166 160 153 150 151 155 157 159
330 328 326 323 321 320 318 317 315 313 312 311 309 308 306 304 303 302 301 299 297 295 293 290 288 285 280 275 271 269 266 262 257 251 246 248 250 240 219 211 207 203 200 196 194 194 195 195 195 196 201 205 206 203 202 201 203 207 207 207 197 187 186 185 183 180 178 176 176 176 178 180 170 162 167 168 164 169 173 171 172 167 161 159 158 160 160 160
330 328 326 323 321 319 318 316 315 313 311 309 308 306 305 303 301 300 299 298 297 295 293 291 287 283 277 273 269 264 263 257 248 246 255 257 252 237 216 207 203 202 203 201 198 197 198 196 194 198 203 207 208 207 207 203 202 207 207 208 197 192 195 186 180 175 176 182 182 177 179 183 174 167 171 171 168 175 180 175 176 171 165 165 163 164 164 163
330 328 326 324 322 320 318 317 315 312 310 309 307 305 303 301 300 298 297 297 296 294 293 290 285 280 275 270 267 261 258 251 243 254 267 262 250 231 213 206 201 200 203 203 201 200 200 197 196 201 206 208 208 209 210 206 207 210 209 212 205 199 198 189 186 183 179 182 182 180 181 183 179 177 178 177 173 176 181 177 175 170 164 164 165 166 168 168
331 329 327 325 323 321 319 317 315 313 311 309 307 305 303 301 299 297 296 295 294 293 291 287 281 276 273 269 266 259 254 250 247 260 271 261 244 224 211 206 200 199 202 203 202 202 201 198 199 203 206 209 210 211 212 209 211 214 211 211 208 207 207 199 197 199 193 184 181 181 183 182 183 185 184 182 176 164 175 173 167 167 165 163 165 168 171 171
331 329 327 325 323 320 319 317 315 313 311 309 307 306 303 302 299 297 296 294 292 290 286 282 276 272 272 270 265 257 251 250 249 259 271 260 238 219 210 206 201 201 203 203 203 203 202 200 202 204 206 210 211 212 212 211 213 217 216 213 209 210 211 207 206 206 198 189 185 184 185 187 189 189 184 186 181 160 162 165 161 162 165 165 166 170 173 175
329 328 326 324 321 319 317 315 313 311 310 308 307 305 303 302 300 298 297 295 292 288 282 277 273 270 271 269 266 259 250 247 250 257 264 255 235 217 208 205 204 204 204 205 204 205 204 204 205 207 209 211 212 212 211 212 215 218 220 218 213 213 213 210 210 209 202 196 192 189 189 192 194 194 188 187 184 167 160 162 162 161 165 169 171 172 173 177
327 326 325 323 321 318 316 314 312 310 309 307 305 304 303 301 299 298 297 295 291 285 279 275 273 270 269 268 266 260 250 247 250 254 255 247 233 216 209 207 206 206 208 208 207 206 207 207 207 209 212 213 212 213 212 213 216 217 221 222 217 215 213 211 212 213 209 203 198 195 197 198 197 200 198 191 185 172 163 164 166 164 166 171 175 174 173 176
326 325 324 323 321 319 316 314 312 310 308 307 305 303 302 300 299 297 296 294 289 283 280 277 274 270 268 267 265 258 251 250 251 251 249 242 231 217 213 212 209 209 210 210 209 208 208 209 208 211 217 217 214 216 215 215 217 217 221 224 222 221 219 216 216 216 215 210 206 203 202 201 199 203 205 194 187 176 166 167 170 170 169 172 176 176 175 176
327 326 325 323 321 319 316 313 311 309 308 307 305 303 301 300 298 297 294 291 285 283 282 278 274 270 268 266 262 258 254 253 251 251 247 239 232 221 217 217 213 212 212 211 211 210 210 211 210 211 217 217 215 217 218 218 221 222 222 225 224 224 223 220 218 217 216 213 209 208 208 206 203 205 208 194 183 179 173 170 173 176 174 173 176 177 176 177
327 326 325 323 321 319 316 312 310 309 308 306 304 303 301 299 297 297 294 289 286 285 282 277 273 271 269 263 259 261 258 253 250 249 245 238 234 226 222 221 217 215 215 214 213 211 211 212 211 211 214 215 214 216 218 218 222 225 225 228 228 225 224 219 216 215 215 212 207 209 212 212 210 207 206 192 182 181 178 175 177 180 178 175 176 177 178 178
325 325 324 323 320 318 315 311 309 308 307 306 305 303 301 299 296 295 291 289 291 287 280 278 274 269 267 262 260 261 257 252 249 248 245 238 234 229 226 224 219 219 220 218 214 212 212 213 212 213 215 217 216 215 219 217 219 223 223 227 230 228 225 219 215 213 213 212 207 210 216 216 213 208 202 192 185 184 181 179 181 183 181 179 177 177 180 180
323 323 323 322 320 317 314 311 309 308 306 305 305 303 301 297 293 291 288 290 292 285 279 280 274 267 265 261 260 260 257 252 248 248 245 237 233 230 227 224 219 220 223 221 217 213 213 214 214 216 217 218 220 218 220 218 217 219 220 223 225 227 224 215 212 212 212 211 208 212 220 219 210 205 201 192 187 187 185 184 184 185 184 182 180 179 181 182
322 322 322 321 319 316 313 310 309 307 306 305 304 302 299 294 290 287 286 292 290 279 279 281 274 269 266 261 260 260 258 255 250 249 244 235 233 230 225 222 219 219 222 221 218 213 213 215 215 217 217 217 221 220 218 217 216 215 216 218 219 222 220 210 210 211 211 209 208 213 220 219 211 202 198 192 191 192 189 187 186 187 187 185 183 182 182 183
322 321 321 321 318 315 312 309 307 307 306 305 304 302 297 292 287 284 287 292 285 275 278 281 274 270 269 267 263 260 261 260 255 249 241 235 233 230 224 220 218 219 221 219 217 213 213 215 216 217 217 216 217 218 217 216 215 213 214 217 215 215 216 212 210 210 211 210 208 213 216 216 212 200 194 194 196 196 194 190 187 188 189 187 186 184 184 184
321 321 321 320 318 315 311 308 306 306 306 306 304 300 296 291 284 282 289 290 282 276 278 280 276 268 268 269 266 266 269 266 258 248 239 235 233 227 221 218 217 217 218 218 216 213 212 214 216 218 218 218 216 215 216 215 213 210 212 217 216 214 216 214 210 208 210 212 211 214 214 215 211 195 194 199 200 200 198 193 189 190 190 190 190 187 187 187
321 320 320 319 318 314 310 307 306 306 307 307 304 299 296 292 282 283 290 288 283 278 275 278 277 266 264 271 273 273 273 267 258 248 239 235 231 224 220 218 216 214 216 217 215 212 212 213 216 218 218 218 216 214 215 215 214 211 210 214 216 215 215 214 211 210 210 212 214 215 215 218 216 200 197 202 203 203 202 196 192 192 191 190 192 191 190 190
321 321 321 320 319 315 311 308 307 307 308 309 305 297 296 293 282 283 289 286 284 281 276 280 279 270 268 274 278 276 272 264 255 248 240 233 227 222 221 219 216 214 216 216 215 213 212 214 216 219 218 217 216 216 217 217 217 216 214 214 216 216 217 214 212 212 211 214 217 217 219 219 217 211 206 205 206 207 205 200 197 195 194 193 194 194 193 192
321 321 321 321 320 317 312 310 310 309 310 310 306 297 296 296 286 283 290 288 286 285 281 281 280 275 273 275 277 275 269 260 253 248 241 232 225 220 220 220 216 217 219 217 215 214 214 217 218 219 219 218 217 217 218 219 220 222 218 216 217 218 218 214 212 213 212 215 217 218 222 220 216 215 211 207 209 210 207 203 200 198 196 195 195 195 194 194
322 321 321 322 320 317 312 311 311 310 310 310 309 303 300 302 294 289 292 288 285 286 281 280 278 276 276 274 275 276 266 257 254 249 241 233 225 221 221 220 219 220 220 217 216 215 217 221 220 219 219 219 218 217 219 221 221 223 221 217 217 218 218 214 212 213 213 217 218 218 222 222 218 218 214 209 210 212 209 205 202 199 198 197 197 197 196 194
322 321 321 321 319 316 311 310 310 309 309 309 310 309 303 303 298 292 290 286 286 286 282 280 277 276 276 270 272 274 263 255 253 248 243 236 228 226 223 222 222 222 219 217 217 216 219 223 221 219 219 220 220 218 218 221 222 223 222 219 217 217 218 217 214 215 216 218 220 219 222 224 221 220 219 213 211 213 212 209 205 200 198 199 198 197 195 194
321 321 320 319 317 314 308 306 307 307 306 308 311 310 303 301 299 292 286 285 285 283 283 284 279 280 280 271 272 273 262 254 252 248 246 239 230 229 227 223 223 223 219 218 218 218 221 223 221 219 219 219 219 217 217 219 222 222 221 221 218 216 217 219 218 218 220 221 222 223 225 225 223 221 220 216 212 214 214 211 208 204 201 200 200 199 197 195
320 319 319 318 316 312 306 302 301 302 302 304 306 308 304 300 298 291 284 284 284 280 281 284 281 283 283 275 273 270 260 255 253 249 247 240 232 231 229 224 224 224 222 220 220 221 223 223 221 220 218 217 217 216 216 219 221 222 221 221 219 217 218 220 219 218 220 223 223 225 227 226 222 221 220 216 213 215 216 213 210 208 206 205 205 203 200 198
319 318 318 318 315 312 306 298 297 299 297 296 300 304 302 299 296 289 284 283 281 277 276 278 278 281 282 276 273 269 259 255 253 248 246 241 236 234 230 226 225 225 223 221 222 224 224 223 220 217 215 216 217 218 218 219 221 222 221 221 221 220 220 221 222 219 220 223 221 221 227 227 222 221 220 215 213 214 215 213 210 208 206 206 206 204 202 201
318 318 318 316 314 312 305 296 297 298 294 292 299 302 299 297 292 285 285 283 278 277 276 277 277 279 281 277 277 270 256 253 253 248 246 242 237 235 231 228 226 227 225 222 224 226 224 221 217 215 215 217 219 220 218 217 221 223 220 220 221 223 223 222 223 222 221 224 219 217 225 228 222 221 220 216 214 213 213 212 210 208 205 205 206 205 204 203
318 317 317 315 313 311 305 298 299 298 293 294 299 299 296 294 288 281 284 282 277 280 280 279 278 279 281 278 277 268 256 259 255 247 248 244 236 233 232 229 226 227 226 223 224 225 222 219 216 216 217 217 219 220 217 215 219 223 220 218 219 221 224 224 224 224 224 226 222 217 222 227 224 220 218 216 215 212 211 211 210 207 205 206 207 206 205 204
319 318 317 315 312 308 304 300 300 298 295 296 297 297 295 291 282 279 284 281 279 281 280 280 278 279 280 276 274 267 260 262 256 249 250 244 236 233 231 231 228 228 225 222 224 223 219 220 219 216 218 219 219 220 218 216 219 222 220 220 219 220 223 224 226 227 226 228 228 221 220 225 225 219 214 215 215 213 210 210 210 207 205 206 208 207 206 204
319 318 317 315 311 306 302 300 300 299 298 297 296 296 293 286 279 279 281 279 279 280 279 280 277 280 282 274 270 269 263 260 256 255 251 242 238 235 233 233 232 230 226 224 225 223 220 221 221 218 218 219 220 219 219 218 219 221 221 221 220 220 221 223 225 227 227 230 228 223 219 222 225 219 215 215 214 213 211 210 209 208 206 207 208 207 206 205
320 319 317 315 310 306 303 300 299 301 302 300 298 295 287 281 279 278 274 273 278 280 279 282 279 281 285 275 269 272 267 261 260 258 249 241 238 235 234 235 232 231 229 226 226 226 224 222 221 220 219 220 220 219 219 218 219 220 220 220 219 219 219 220 223 224 228 229 226 223 221 222 225 220 215 216 215 213 212 210 209 208 207 207 208 208 207 205
321 319 317 314 311 309 306 302 303 305 305 303 300 290 279 277 277 275 273 272 277 279 276 284 285 281 286 280 274 277 270 264 264 258 248 241 236 233 234 232 228 229 229 227 226 226 225 222 220 220 219 219 219 220 219 217 217 218 217 215 216 216 215 218 220 220 225 227 224 223 223 224 225 221 216 216 215 214 213 211 208 208 208 208 208 208 207 205
320 318 316 314 312 311 308 304 306 305 305 305 298 284 275 276 273 271 275 271 272 279 277 282 288 287 285 279 280 283 273 267 266 259 252 244 237 234 233 230 228 227 227 226 225 224 224 223 222 221 218 217 217 218 218 216 216 217 214 212 213 212 211 214 216 217 223 226 223 221 222 225 226 223 219 217 215 213 212 211 209 207 208 208 208 207 207 206
321 318 315 316 316 313 309 307 307 304 304 303 294 282 277 277 274 275 279 274 272 279 280 278 284 288 285 277 282 285 272 269 270 260 253 247 240 233 229 230 230 228 227 227 224 223 223 223 221 221 218 215 215 215 215 215 215 215 212 211 211 210 210 213 215 218 223 225 223 222 224 227 227 224 220 218 216 213 210 210 210 208 208 209 208 207 207 207
322 318 314 317 318 314 311 309 307 303 301 298 289 281 276 274 278 279 278 277 274 274 277 280 280 281 281 278 284 285 272 270 274 265 255 246 240 234 229 230 231 229 229 229 226 223 222 221 219 219 218 215 215 215 215 214 214 215 213 213 214 214 213 214 216 219 222 223 221 219 223 226 224 222 220 218 217 214 209 208 209 209 210 209 208 208 208 207
323 319 314 318 319 318 317 312 306 301 296 294 286 277 275 277 283 280 276 280 277 273 276 279 278 275 273 274 279 281 274 273 275 268 257 246 242 240 235 233 232 230 228 227 227 224 224 223 218 216 216 215 214 215 214 214 215 214 213 215 216 215 216 218 221 222 222 224 221 216 219 222 220 220 217 215 216 215 213 213 213 213 212 211 210 210 209 209
326 322 317 321 324 322 320 316 310 301 292 290 283 277 280 285 288 284 280 281 278 279 278 274 274 275 274 274 275 278 276 272 272 266 256 247 244 243 239 234 232 230 227 226 226 225 223 221 215 213 214 213 214 214 212 213 214 212 212 215 216 216 218 221 224 224 223 225 222 217 219 221 222 222 218 215 216 215 213 215 215 215 214 213 213 212 211 210
329 324 320 326 328 324 322 319 313 301 291 289 285 283 287 287 287 285 282 281 278 281 280 273 275 277 277 277 275 280 282 272 265 263 256 249 244 243 241 236 232 230 227 226 225 223 223 222 218 215 213 212 213 214 213 214 216 214 213 214 214 216 220 221 223 222 221 224 223 219 220 220 220 222 220 217 217 216 214 213 214 214 215 215 215 214 212 211
330 325 324 333 332 326 324 321 315 304 293 291 289 289 291 287 286 285 283 282 279 279 278 275 277 277 276 277 276 279 280 272 266 263 257 251 247 245 242 237 234 232 229 227 225 223 225 226 223 218 215 213 212 213 215 216 216 218 218 213 211 214 217 217 219 220 219 222 223 221 221 221 219 218 217 216 217 217 215 213 214 215 215 216 215 215 213 212
331 326 329 337 334 328 326 322 318 309 298 296 295 294 293 290 291 291 288 285 282 282 281 278 280 277 275 279 279 277 274 271 270 264 255 252 249 246 244 239 238 236 232 228 226 226 224 225 223 218 215 215 212 212 214 213 213 218 221 217 213 215 216 215 217 220 221 222 223 222 221 222 221 217 217 217 215 216 216 214 214 216 216 215 215 215 214 213
335 329 335 340 336 332 329 323 320 315 306 309 309 303 299 297 299 299 296 291 286 286 286 283 281 278 278 280 278 274 271 269 267 262 256 253 248 245 245 242 240 239 236 230 226 226 223 222 222 216 213 215 215 214 215 214 212 214 217 216 213 214 216 217 218 219 221 223 224 222 221 222 221 216 217 218 213 213 214 214 214 215 216 216 214 216 216 214
338 333 340 342 339 336 330 327 331 326 317 319 318 311 307 305 306 305 302 297 291 288 289 286 283 282 282 281 275 273 272 268 262 259 255 251 247 245 244 245 243 240 236 230 224 223 222 220 220 218 216 216 215 215 216 216 215 214 215 216 215 215 214 216 219 217 218 222 224 223 222 221 216 211 213 216 216 215 214 214 215 214 216 216 214 216 217 215
341 340 342 342 342 338 331 336 341 333 327 326 324 320 313 307 307 307 305 301 294 292 290 287 287 287 284 281 277 273 270 266 260 256 252 248 248 248 246 248 247 240 235 230 225 224 223 221 220 221 220 217 216 217 217 216 216 215 215 215 216 216 215 216 218 217 218 220 222 225 225 221 213 206 207 211 215 216 215 215 216 215 216 216 215 216 216 215
347 347 346 346 345 338 335 347 346 339 341 334 326 325 318 313 311 309 308 303 297 295 293 290 291 291 287 283 278 272 268 264 259 254 251 249 247 246 246 248 247 241 234 229 225 224 223 221 221 222 223 223 223 221 217 215 216 216 216 215 215 216 216 217 218 217 218 218 217 221 224 222 217 212 211 212 214 216 216 216 216 215 215 216 216 215 215 214
350 349 350 353 353 346 344 352 350 348 351 341 333 331 324 321 318 314 313 310 303 299 296 295 295 294 290 284 277 270 267 264 258 252 251 250 245 244 246 246 244 240 234 228 225 225 223 221 219 219 219 219 219 218 215 214 215 216 216 216 216 216 217 218 218 217 218 219 218 219 221 221 219 215 214 216 217 219 219 217 216 216 215 216 216 214 213 214
350 351 357 3 7 8 4 359 356 357 357 350 345 337 327 324 324 320 318 317 312 307 304 303 301 298 293 285 275 269 266 265 260 254 252 251 247 244 244 245 243 240 237 234 231 228 225 222 220 218 215 213 214 215 214 213 213 215 216 216 216 216 217 218 218 218 218 220 221 221 219 218 215 212 213 215 216 217 219 217 217 216 215 216 215 213 211 213
354 357 1 5 14 20 18 12 8 7 2 355 350 344 338 335 334 330 324 323 322 318 315 312 308 301 293 284 276 270 266 264 262 258 255 253 249 244 244 247 247 241 239 237 232 227 226 224 222 222 221 219 219 220 219 216 214 214 214 214 215 216 217 217 218 219 219 220 221 221 221 220 214 208 209 212 211 211 213 214 213 213 212 212 212 212 212 214
357 1 2 3 11 20 22 20 19 18 10 359 355 355 353 349 346 342 335 332 331 327 323 321 316 307 295 287 280 272 268 266 263 261 259 255 253 249 247 248 246 239 235 233 229 225 225 225 224 226 226 225 226 226 223 220 219 218 217 215 214 215 216 216 217 218 218 219 220 219 221 222 217 207 207 211 211 210 211 212 212 213 213 211 210 211 213 215
2 6 7 5 10 18 21 21 23 26 23 14 9 5 2 0 356 350 346 341 335 333 332 328 324 316 303 292 284 275 272 269 264 263 261 258 256 254 250 248 244 236 231 231 228 224 225 226 225 227 229 228 227 227 224 221 221 222 222 219 217 216 216 216 218 218 218 219 220 220 221 221 218 218 220 219 216 216 215 215 216 216 216 214 213 213 215 216
7 12 14 14 19 24 25 24 23 25 25 19 17 13 6 4 2 356 350 344 339 341 339 333 331 325 309 295 285 276 273 272 269 268 268 266 261 256 251 246 240 233 229 229 227 225 224 224 224 226 230 231 229 226 224 223 222 223 223 222 220 219 218 218 219 219 220 221 223 224 226 223 220 224 227 223 221 221 219 219 219 218 218 219 218 217 218 219
11 14 16 21 29 28 26 25 22 22 22 15 13 14 8 5 4 359 352 346 342 345 344 339 338 332 315 299 287 278 275 273 270 269 271 270 264 257 250 242 235 231 229 227 226 225 223 223 225 227 229 230 228 226 224 222 222 223 224 222 221 220 220 220 220 220 221 222 222 224 227 225 223 225 227 227 227 226 225 226 224 221 221 222 222 222 221 221
15 17 15 18 27 26 23 24 21 18 19 15 12 12 8 8 6 358 354 352 346 346 347 344 342 338 322 305 292 285 281 276 270 268 268 266 263 259 251 243 237 235 231 228 226 226 224 225 226 226 226 226 224 223 224 223 222 223 223 222 221 220 220 220 220 220 220 220 220 222 224 224 224 226 227 228 228 228 229 229 227 224 224 225 226 226 225 225
14 18 17 16 24 25 22 23 20 16 16 15 13 11 7 7 5 358 358 358 350 348 350 346 343 341 330 315 303 296 291 284 276 272 268 264 261 258 252 248 244 239 234 231 230 227 225 226 225 224 224 224 222 222 223 223 223 222 221 220 219 219 219 219 218 218 218 219 219 221 223 222 223 226 227 228 228 229 230 231 230 229 228 228 229 229 229 229